Regional Weather Roundup
Issued by NWS State College, PA

Home | Current Version | Previous Version | Text Only | Print | Product List | Glossary Off
Versions: 1 2 3 4 5 6 7 8 9 10 11 12 13 14 15 16 17 18 19 20 21 22 23 24 25 26 27 28 29 30 31 32 33 34 35 36 37 38 39 40 41 42 43 44 45 46 47 48 49 50

711
ASUS41 KCTP 222210
RWRCTP

REGIONAL WEATHER ROUNDUP
NATIONAL WEATHER SERVICE STATE COLLEGE PA
600 PM EDT SUN APR 22 2018

Note: "fair" indicates few or no clouds below 12,000 feet with no
significant weather and/or obstructions to visibility.

* = STATION THAT DOES NOT REPORT PRECIPITATION /E.G. RAIN...SNOW...ETC/
    THUNDER OR FOG.

PAZ002>004-007>009-013>016-020>023-029>032-222300-
WESTERN PENNSYLVANIA

CITY           SKY/WX    TMP DP  RH WIND       PRES   REMARKS
ERIE           FAIR      57  20  23 NE21G26   30.33F
MEADVILLE      FAIR      63  16  16 NE8       30.28F
FRANKLIN*      FAIR      65  15  14 NE6       30.29S
NEW CASTLE     FAIR      68  21  16 SE6       30.27F
BEAVER COUNTY  NOT AVBL
BUTLER*        FAIR      65  27  23 S7        30.27S
PITTSBURGH INT FAIR      67  25  20 VRB5G18   30.24F
PITTSBURGH     FAIR      68  31  25 N6        30.24S
INDIANA*       SUNNY     64  27  24 VRB6      30.31S
LATROBE        SUNNY     66  30  26 E7        30.26S
WASHINGTON CO* FAIR      67  27  22 E5        30.26F
$$

PAZ004>006-010>012-017>019-024>028-033>037-041-042-045-046-049>053-222300-
CENTRAL PENNSYLVANIA

CITY           SKY/WX    TMP DP  RH WIND       PRES   REMARKS
BRADFORD       FAIR      60  10  14 NE8       30.32S
DUBOIS         FAIR      64  19  17 NE6       30.28F
CLEARFIELD     FAIR      64  16  15 CALM      30.30S
JOHNSTOWN      FAIR      60  29  30 SE7       30.28S
ALTOONA        FAIR      64  31  28 E9        30.30S
STATE COLLEGE  SUNNY     63  23  22 CALM      30.31F
WILLIAMSPORT   FAIR      66  12  12 NE9       30.30S
SELINSGROVE    FAIR      63  26  24 SE7       30.33S
FT INDIANTOWN  FAIR      64  26  23 S7        30.32S
CAPITAL CITY   FAIR      65  29  25 E6        30.33F
HARRISBURG     FAIR      65  29  25 SE5       30.33S
YORK           FAIR      64  32  30 E7        30.32F
$$

PAZ038>040-043-044-047-048-054-055-060>062-067>071-222300-
EASTERN PENNSYLVANIA

CITY           SKY/WX    TMP DP  RH WIND       PRES   REMARKS
SCRANTON       FAIR      63  17  17 N13       30.32S
MOUNT POCONO   FAIR      58  14  17 W9G21     30.32S
ALLENTOWN      FAIR      66  14  13 NW5       30.32S
QUAKERTOWN*    CLEAR     64  23  20 CALM      30.32F
READING        FAIR      65  22  19 CALM      30.32S
LANCASTER      FAIR      63  27  25 CALM      30.33F
COATESVILLE    FAIR      63  25  23 W7        30.35S
POTTSTOWN      FAIR      64  23  21 W5        30.34S
BLUE BELL      FAIR      63  27  25 NW5       30.34F
DOYLESTOWN     FAIR      64  20  18 SW6       30.32S
WILLOW GROVE   NOT AVBL
NORTH PHILA    FAIR      67  23  19 NW7       30.34F
PHILADELPHIA   FAIR      65  22  19 SW7       30.34S
$$




USA.gov is the U.S. government's official web portal to all federal, state and local government web resources and services.